EW0380 Weather Reports


time (UTC)temp
C
wind
direction
speed
KPH
gust
KPH
rain 1hr
cm
rain 24hr
cm
rain mn
cm
humidity
%
barometer
mb
20260510072023 8 0.0 0.0 0.00 0.94 0.13 96 1011.4
20260510071027 8 0.0 0.0 0.00 0.94 0.13 96 1011.2
20260510070052 8 26 1.6 3.2 0.00 0.94 0.13 96 1011.1
20260510065018 8 5 4.8 4.8 0.00 0.94 0.13 96 1010.9
20260510064022 9 23 0.0 1.6 0.00 0.94 0.13 96 1010.8
20260510063026 9 9 4.8 6.4 0.00 0.94 0.13 96 1010.7
20260510062030 10 342 1.6 3.2 0.00 0.94 0.13 96 1011.0
20260510061037 10 60 0.0 1.6 0.08 0.94 0.13 95 1011.4
20260510055045 10 0.0 0.0 0.08 0.94 0.13 95 1010.5
20260510054030 10 0.0 1.6 0.08 0.94 0.13 95 1010.2
20260510053036 10 3 4.8 8.0 0.08 0.94 0.13 95 1010.0
20260510052040 11 11 6.4 6.4 0.08 0.94 0.13 96 1010.5
20260510051024 11 267 4.8 8.0 0.05 0.86 0.05 96 1010.0
20260510050029 11 45 0.0 3.2 0.05 0.86 0.05 96 1009.5
20260510045014 11 0.0 0.0 0.05 0.86 0.05 96 1009.4
20260510044019 11 0 0.0 3.2 0.05 0.86 0.05 96 1009.3
20260510043023 11 265 1.6 4.8 0.05 0.86 0.05 96 1009.3
20260510042027 11 203 0.0 3.2 0.05 0.86 0.05 95 1009.3
20260510041026 11 176 4.8 6.4 0.00 0.81 0.00 95 1008.6
20260510040058 11 171 8.0 9.7 0.00 0.81 0.00 95 1008.7
20260510035023 11 196 8.0 12.9 0.00 0.81 0.81 95 1008.7
20260510034021 11 189 11.3 16.1 0.00 0.81 0.81 97 1008.5
20260510033039 11 127 3.2 4.8 0.00 0.81 0.81 97 1008.2
20260510032017 11 219 3.2 4.8 0.00 0.81 0.81 97 1008.2
20260510031016 11 0.0 0.0 0.00 0.81 0.81 96 1007.9
20260510030026 11 203 0.0 1.6 0.00 0.81 0.81 96 1008.2
20260510025030 11 183 4.8 8.0 0.00 0.81 0.81 96 1008.4
20260510024016 11 186 6.4 8.0 0.00 0.81 0.81 96 1008.4
20260510023022 11 188 6.4 11.3 0.00 0.81 0.81 96 1008.3
20260510022025 11 176 6.4 9.7 0.00 0.81 0.81 96 1008.3
20260510021029 11 171 4.8 8.0 0.00 0.81 0.81 96 1008.3
20260510020016 11 144 4.8 6.4 0.00 0.81 0.81 95 1008.1
20260510015101 11 168 4.8 4.8 0.00 0.81 0.81 95 1007.8
20260510014024 11 163 4.8 6.4 0.00 0.81 0.81 95 1007.8
20260510013028 12 162 6.4 8.0 0.00 0.81 0.81 94 1007.7
20260510012053 12 173 6.4 8.0 0.00 0.81 0.81 94 1007.6
20260510011019 12 172 8.0 9.7 0.00 0.81 0.81 94 1007.5
20260510010023 12 185 6.4 8.0 0.00 0.84 0.81 94 1007.5
20260510005113 12 170 6.4 9.7 0.00 0.84 0.81 94 1007.4
20260510004032 12 150 6.4 8.0 0.00 0.84 0.81 94 1007.4
20260510003018 12 153 4.8 9.7 0.03 0.84 0.81 94 1007.5
20260510002022 12 161 6.4 8.0 0.10 0.84 0.81 93 1007.4
20260510001026 12 172 3.2 6.4 0.18 0.84 0.81 92 1007.2
20260510000030 12 168 6.4 8.0 0.28 0.84 0.81 92 1007.1
20260509235038 12 200 9.7 11.3 0.79 0.84 0.81 92 1007.0
20260509234021 12 200 11.3 16.1 0.81 0.84 0.81 92 1007.2
20260509233025 12 241 9.7 12.9 0.79 0.81 0.79 93 1007.6
20260509232050 12 261 4.8 9.7 0.71 0.74 0.71 93 1007.8
20260509231016 12 249 6.4 11.3 0.64 0.66 0.64 92 1008.2
20260509230020 12 268 9.7 14.5 0.53 0.56 0.53 89 1007.5
20260509225025 15 37 8.0 9.7 0.03 0.05 0.03 78 1005.8
20260509224029 19 243 12.9 17.7 0.00 0.03 0.00 59 1005.2
20260509223035 19 222 16.1 22.5 0.00 0.03 0.00 60 1004.9
20260509222038 19 200 12.9 17.7 0.00 0.03 0.00 60 1004.6
20260509221023 19 194 17.7 20.9 0.00 0.03 0.00 60 1004.1
20260509220041 20 207 17.7 20.9 0.00 0.03 0.00 60 1004.2
20260509215020 20 206 24.1 35.4 0.00 0.03 0.00 59 1004.0
20260509214018 21 195 19.3 30.6 0.00 0.03 0.00 58 1004.1
20260509213016 20 193 20.9 29.0 0.00 0.03 0.00 58 1004.2
20260509212026 20 208 22.5 30.6 0.00 0.03 0.00 58 1004.4
20260509211031 20 203 19.3 24.1 0.00 0.03 0.00 60 1004.6
20260509210017 20 212 19.3 25.7 0.00 0.03 0.00 59 1005.0
20260509205021 20 200 20.9 27.4 0.00 0.03 0.00 59 1005.0
20260509204025 20 200 19.3 24.1 0.00 0.03 0.00 60 1005.1
20260509203050 19 192 20.9 27.4 0.00 0.03 0.00 60 1005.2
20260509202036 20 177 24.1 32.2 0.00 0.03 0.00 60 1005.2
20260509201021 20 184 17.7 22.5 0.00 0.03 0.00 60 1005.4
20260509200025 20 190 17.7 27.4 0.00 0.03 0.00 60 1005.7
20260509195029 19 200 24.1 29.0 0.00 0.03 0.00 59 1005.8
20260509194015 20 179 22.5 29.0 0.00 0.03 0.00 59 1005.9
20260509193019 20 182 19.3 27.4 0.00 0.03 0.00 60 1005.9
20260509192025 19 200 19.3 25.7 0.00 0.03 0.00 61 1006.1
20260509191028 20 197 20.9 27.4 0.00 0.03 0.00 60 1006.2
20260509190032 20 190 17.7 25.7 0.00 0.03 0.00 61 1006.2
20260509185019 20 217 17.7 25.7 0.00 0.03 0.00 60 1006.2
20260509184043 19 198 19.3 25.7 0.00 0.03 0.00 60 1006.3
20260509183027 19 216 19.3 25.7 0.00 0.03 0.00 61 1006.4
20260509182031 20 210 17.7 24.1 0.00 0.03 0.00 61 1006.4
20260509181017 19 203 17.7 22.5 0.00 0.03 0.00 60 1006.6
20260509180021 19 208 16.1 19.3 0.00 0.03 0.00 59 1006.7
20260509175025 18 186 12.9 16.1 0.00 0.03 0.00 61 1006.7
20260509174030 18 202 19.3 24.1 0.00 0.03 0.00 60 1006.7
20260509173016 18 198 17.7 22.5 0.00 0.03 0.00 61 1006.8
20260509172021 18 210 14.5 20.9 0.00 0.03 0.00 63 1007.0
20260509171025 18 179 14.5 20.9 0.00 0.03 0.00 64 1006.9
20260509170029 18 210 14.5 17.7 0.00 0.03 0.00 65 1007.0
20260509165035 17 169 11.3 14.5 0.00 0.03 0.00 65 1007.2
20260509164019 17 197 14.5 17.7 0.00 0.03 0.00 68 1007.4
20260509163024 17 227 11.3 17.7 0.00 0.03 0.00 69 1007.5
20260509162022 17 233 11.3 16.1 0.00 0.03 0.00 70 1007.5
20260509161040 17 196 11.3 16.1 0.00 0.03 0.00 74 1007.7
20260509160019 16 194 9.7 14.5 0.00 0.03 0.00 77 1007.7
20260509155017 15 189 6.4 9.7 0.00 0.03 0.00 80 1007.7
20260509154015 15 164 11.3 16.1 0.00 0.03 0.00 81 1007.7
20260509153032 15 160 9.7 12.9 0.00 0.03 0.00 82 1007.8
20260509152018 15 194 9.7 12.9 0.00 0.03 0.00 85 1007.9
20260509151022 13 168 9.7 12.9 0.00 0.03 0.00 86 1008.0
20260509150026 13 190 9.7 14.5 0.00 0.03 0.00 87 1008.0
20260509145031 13 178 9.7 12.9 0.00 0.03 0.00 88 1008.0
20260509144017 13 165 8.0 9.7 0.00 0.03 0.00 89 1008.0
20260509143022 13 195 11.3 12.9 0.00 0.03 0.00 90 1007.9
20260509142026 12 178 9.7 12.9 0.00 0.03 0.00 91 1008.0
20260509141030 12 197 9.7 11.3 0.00 0.03 0.00 91 1008.2
20260509140016 12 187 8.0 9.7 0.00 0.03 0.00 91 1008.1
20260509135021 12 183 9.7 12.9 0.00 0.03 0.00 92 1008.1
20260509134026 12 162 8.0 11.3 0.00 0.03 0.00 92 1008.2
20260509133029 12 180 11.3 14.5 0.00 0.03 0.00 92 1008.2
20260509132016 12 176 9.7 12.9 0.00 0.03 0.00 92 1008.3
20260509131040 12 186 11.3 14.5 0.00 0.03 0.00 93 1008.2
20260509130045 11 171 9.7 12.9 0.00 0.03 0.00 93 1008.3
20260509125029 11 164 9.7 11.3 0.00 0.03 0.00 93 1008.4
20260509124035 11 184 11.3 14.5 0.00 0.03 0.00 93 1008.5
20260509123040 11 181 11.3 14.5 0.00 0.03 0.00 94 1008.5
20260509122024 11 187 12.9 16.1 0.00 0.03 0.00 94 1008.5
20260509121025 11 173 9.7 14.5 0.00 0.03 0.00 94 1008.6
20260509120024 11 188 9.7 12.9 0.00 0.03 0.00 94 1008.6
20260509115028 11 191 9.7 12.9 0.00 0.03 0.00 95 1008.5
20260509114032 10 153 9.7 12.9 0.00 0.03 0.00 95 1008.5
20260509113019 10 183 8.0 11.3 0.00 0.03 0.00 95 1008.5
20260509112023 10 177 8.0 9.7 0.00 0.03 0.00 95 1008.5
20260509111027 10 184 9.7 11.3 0.00 0.03 0.00 96 1008.5
20260509110026 10 186 9.7 14.5 0.00 0.03 0.00 96 1008.6
20260509105018 10 176 8.0 11.3 0.00 0.03 0.00 96 1008.5
20260509104042 10 171 8.0 8.0 0.00 0.03 0.00 96 1008.5
20260509103021 10 157 8.0 9.7 0.00 0.03 0.00 95 1008.5
20260509102039 10 174 6.4 9.7 0.00 0.03 0.00 95 1008.4
20260509101017 10 184 8.0 12.9 0.00 0.03 0.00 95 1008.4
20260509100036 10 167 6.4 9.7 0.00 0.03 0.00 95 1008.4
20260509095025 10 178 9.7 16.1 0.00 0.03 0.00 95 1008.6
20260509094030 10 173 9.7 12.9 0.00 0.03 0.00 95 1008.7
20260509093017 10 190 11.3 16.1 0.00 0.03 0.00 95 1008.7
20260509092021 10 187 11.3 14.5 0.00 0.03 0.00 95 1008.8
20260509091025 10 192 9.7 14.5 0.00 0.03 0.00 95 1008.8
20260509090030 10 168 9.7 11.3 0.00 0.03 0.00 95 1009.0
20260509085016 10 166 11.3 14.5 0.00 0.03 0.00 95 1009.1
20260509084021 10 189 9.7 14.5 0.00 0.03 0.00 95 1009.1
20260509083025 10 185 9.7 11.3 0.00 0.03 0.00 95 1009.0
20260509082029 10 172 8.0 11.3 0.00 0.03 0.00 95 1009.0
20260509081015 10 188 9.7 11.3 0.00 0.03 0.00 95 1009.0
20260509080019 10 185 9.7 12.9 0.00 0.03 0.00 95 1009.0
20260509075024 10 178 9.7 14.5 0.00 0.03 0.00 95 1009.1
20260509074028 10 199 9.7 12.9 0.00 0.03 0.00 95 1009.1
20260509073033 10 189 9.7 11.3 0.00 0.03 0.00 95 1009.1